Wind_Speed
33 31 30 29 29 28 28 27 26 26 26 26 26 26 27 28 29 31 32 31 31 32 33 34 37 39 40 42 43 43 43 43 42 42 41 43 44 46 48 51 54 57 60
34 31 30 29 28 29 28 27 27 27 27 27 27 28 29 30 31 32 31 31 32 34 36 38 40 42 43 44 44 44 44 44 44 44 44 45 47 50 53 57 60 63 65
33 31 30 29 29 29 29 28 27 28 28 28 29 29 30 30 31 31 31 33 35 37 39 41 43 44 45 45 45 44 44 45 47 49 51 53 54 55 56 60 63 66 68
33 30 29 29 29 29 29 28 28 28 29 29 30 30 31 32 32 32 33 36 38 40 42 43 44 44 44 45 45 46 47 48 51 54 57 61 64 66 65 64 65 67 69
33 30 30 30 29 29 29 28 28 28 29 30 30 31 31 32 32 34 36 38 41 42 43 44 44 44 44 45 46 48 51 53 56 59 62 65 68 72 74 73 73 72 71
34 31 30 29 28 28 28 28 28 28 29 30 31 31 32 33 35 36 38 40 42 43 43 44 44 44 45 47 49 52 55 58 61 64 67 69 71 73 75 77 77 77 76
33 31 30 29 29 29 28 28 28 29 29 30 31 32 33 35 36 38 39 41 42 43 44 44 44 45 47 50 53 55 59 62 65 68 70 72 74 75 76 78 78 78 78
32 31 30 29 29 28 28 28 28 29 30 31 32 33 35 36 38 39 40 41 42 43 44 45 46 48 50 53 56 59 62 65 68 70 72 73 74 75 77 79 82 83 82
31 30 29 28 27 27 27 28 28 29 30 31 32 34 36 37 38 40 41 42 42 44 45 46 48 51 53 56 59 62 66 69 71 72 72 72 73 76 79 83 88 92 93
30 29 27 26 26 26 26 27 27 28 29 31 32 34 36 38 39 40 41 42 43 45 47 49 51 53 56 59 63 66 69 71 71 71 71 73 76 80 85 90 95 100 105
28 27 26 25 25 24 24 25 26 27 29 31 32 35 37 39 40 41 42 43 45 47 49 51 53 56 59 62 66 68 70 70 70 71 74 77 82 87 92 97 102 107 113
26 26 25 24 23 23 23 24 25 27 29 31 33 35 37 38 40 41 43 44 47 49 51 53 56 59 62 65 68 69 69 69 71 74 79 83 88 93 99 104 109 113 116
24 23 22 21 21 22 23 24 26 28 30 32 34 35 37 39 40 42 44 46 49 51 53 55 59 62 65 67 68 68 69 71 75 80 85 90 95 100 106 111 114 115 113
21 20 20 20 21 22 23 24 26 28 30 32 34 36 38 40 42 44 46 48 51 53 55 58 61 64 66 67 67 68 71 75 81 86 92 97 102 108 112 115 114 110 104
19 19 19 19 20 21 22 24 26 28 30 32 34 36 38 41 43 46 48 50 52 55 58 61 64 66 66 66 68 71 76 81 86 92 97 103 109 113 114 112 107 101 94
19 19 19 19 20 21 22 25 27 29 31 33 35 37 40 43 45 47 49 52 54 57 61 63 64 65 65 68 71 76 81 87 93 98 103 109 112 112 107 102 96 91 86
18 18 18 19 20 21 24 26 28 30 32 34 37 39 42 44 46 48 51 53 56 59 62 63 63 64 67 71 76 81 87 93 98 104 109 111 109 104 97 91 85 79 72
17 17 18 19 21 23 25 26 28 31 33 36 39 41 43 46 48 50 53 55 58 60 60 61 63 66 71 76 81 87 92 98 103 108 110 107 100 93 87 80 73 64 55
17 18 19 21 22 24 25 27 30 32 35 38 40 42 45 47 49 52 54 57 58 58 60 62 66 71 76 82 87 93 97 102 106 106 103 97 89 82 75 68 58 49 42
19 20 21 22 23 25 27 29 32 34 37 39 41 43 45 48 51 53 55 56 56 58 61 65 70 76 82 88 94 99 102 105 103 98 90 83 77 70 62 54 46 38 32
19 20 21 22 24 26 28 31 33 36 38 40 42 44 47 50 52 53 54 55 56 59 64 69 76 82 88 93 98 102 104 103 97 88 78 70 64 57 50 43 37 32 28
19 20 21 23 25 27 30 32 34 36 38 41 43 46 48 50 51 52 53 55 58 62 68 73 80 86 92 97 100 102 101 96 88 77 68 60 52 45 39 34 30 27 25
18 20 22 24 27 29 31 33 35 37 39 41 44 46 48 49 50 52 54 57 62 67 72 78 84 89 94 99 101 99 93 84 76 67 58 50 43 37 32 28 25 23 22
19 21 23 25 27 29 31 33 35 37 40 42 44 46 47 49 50 53 56 61 66 72 78 83 88 92 96 99 97 91 82 73 64 55 47 41 35 31 27 24 22 22 21
19 22 24 26 28 30 32 34 36 38 41 43 44 45 47 48 51 55 60 66 72 78 83 88 92 95 96 95 90 81 72 63 54 45 38 32 28 26 24 23 22 21 21
21 23 25 27 29 30 32 35 38 40 41 43 44 45 47 50 54 59 65 71 77 83 88 91 94 95 93 87 79 70 62 53 44 36 30 26 23 22 20 19 20 21 21
Wind_Direction
238 239 241 242 244 248 253 253 249 245 248 252 257 263 270 277 282 288 291 292 292 293 293 294 295 295 296 296 296 295 294 293 291 289 288 288 289 289 290 291 291 291 291
235 237 239 240 242 247 251 253 251 249 251 255 260 266 273 279 284 289 289 290 292 293 294 294 295 296 296 296 295 294 294 293 291 290 289 289 291 292 293 294 294 293 293
233 236 238 239 241 245 249 252 253 253 255 259 263 268 274 280 285 288 289 291 292 293 294 295 296 296 297 296 295 295 294 294 294 294 294 293 291 290 291 292 293 293 293
232 235 237 237 239 243 247 252 253 255 257 260 264 269 275 281 285 287 290 291 292 293 294 295 296 297 297 296 296 296 296 296 297 297 297 297 297 296 294 293 293 293 293
231 233 235 236 237 241 246 250 254 256 258 261 265 270 275 280 284 287 289 292 293 294 295 296 296 297 297 297 297 297 298 298 298 298 298 298 299 299 298 297 296 295 295
230 232 234 236 237 241 245 250 254 256 258 261 265 270 275 280 283 287 290 292 294 294 295 296 296 296 296 297 297 298 298 298 299 299 299 299 299 298 298 297 297 296 297
229 231 234 235 237 241 245 250 253 256 259 262 266 271 276 280 284 287 289 292 293 294 294 295 295 296 296 297 297 298 298 299 300 300 301 301 301 301 300 300 299 298 298
226 229 231 233 236 241 246 250 253 256 260 263 268 273 277 281 285 287 290 291 292 293 293 294 295 295 296 297 297 298 300 300 301 302 302 303 303 303 302 302 301 300 299
224 227 229 231 235 240 244 249 253 257 261 266 271 275 279 283 286 289 290 292 292 293 294 294 295 296 297 298 299 300 302 303 304 304 304 304 304 304 304 304 304 303 302
221 223 225 228 233 238 244 249 254 259 264 268 273 277 281 285 288 289 291 292 293 294 295 296 296 297 298 300 301 302 304 305 306 306 305 305 305 305 305 305 305 305 304
216 218 220 225 231 237 244 250 256 261 267 271 275 279 283 286 288 290 292 293 295 296 296 297 298 299 300 302 303 305 306 306 306 306 306 306 306 307 307 306 306 305 305
209 212 217 223 231 239 247 253 259 264 269 274 278 281 285 287 289 291 293 295 296 297 297 298 299 301 302 304 305 307 307 307 307 307 307 307 308 308 308 307 307 306 305
205 211 217 226 235 243 251 257 262 267 272 277 280 283 286 288 291 293 294 296 297 298 299 299 301 303 305 306 307 308 308 308 308 308 308 309 309 309 308 308 308 307 306
204 212 221 231 240 248 256 261 266 271 275 279 282 285 288 290 293 294 296 297 298 299 300 302 304 305 307 308 308 308 308 309 309 310 310 310 310 310 310 309 308 307 306
209 219 228 237 246 253 259 265 270 274 278 281 284 288 290 292 294 296 297 298 299 301 302 304 306 307 308 308 308 309 310 310 311 311 312 312 312 312 311 311 309 308 306
216 226 234 243 251 258 264 269 274 277 280 284 287 290 291 293 296 297 299 300 301 303 305 306 308 308 308 309 309 310 312 312 313 313 313 313 313 313 312 310 309 308 307
223 231 241 251 258 264 269 273 276 280 284 287 289 291 293 295 297 298 300 302 303 305 306 308 308 309 309 310 311 312 313 314 314 314 314 315 315 313 312 311 310 309 308
232 242 253 260 264 268 272 276 280 283 286 288 290 293 295 296 298 300 301 303 305 306 307 308 309 310 311 312 313 314 315 315 315 316 316 316 315 314 313 312 312 312 311
244 252 258 263 267 271 275 279 282 285 287 290 292 294 296 297 299 301 303 305 306 307 309 310 311 312 313 314 315 315 315 316 317 318 318 317 316 315 315 315 316 317 316
252 257 262 266 271 275 279 282 284 287 289 291 293 294 296 298 301 302 304 306 307 308 310 312 313 314 315 316 316 316 317 318 319 319 318 317 317 318 318 319 321 322 321
256 261 265 270 274 278 281 283 286 288 290 292 294 296 298 300 302 304 305 307 308 310 312 314 315 316 317 317 317 318 319 320 320 320 320 319 319 319 320 322 324 326 327
259 264 269 273 277 280 283 286 288 289 291 294 296 298 300 302 303 305 306 308 310 312 314 315 317 317 317 318 319 320 321 321 322 322 321 321 321 321 322 325 328 330 331
265 270 274 278 281 283 286 288 289 291 294 296 298 300 302 303 305 306 308 310 312 314 316 317 317 318 318 319 321 322 322 322 322 322 322 323 323 324 325 327 331 334 338
270 275 279 282 284 286 288 290 292 294 296 298 300 302 303 305 306 309 311 313 315 316 317 318 318 319 320 321 322 322 322 321 321 322 323 323 324 326 328 332 337 341 344
276 279 282 285 287 289 290 292 295 297 299 301 302 303 305 307 309 312 314 316 317 318 318 319 320 320 321 322 323 323 323 322 323 324 325 325 327 329 332 336 341 344 346
280 283 286 288 290 291 293 295 298 300 301 302 304 305 307 310 312 315 317 318 319 319 320 320 321 322 323 323 324 324 324 323 324 326 327 329 330 333 336 339 341 343 344
Height
5752 5755 5758 5761 5764 5766 5768 5769 5771 5773 5774 5776 5776 5777 5777 5776 5775 5773 5771 5769 5767 5765 5762 5760 5757 5754 5750 5747 5743 5738 5734 5731 5728 5725 5721 5717 5713 5709 5705 5700 5696 5691 5686
5745 5749 5752 5755 5758 5760 5762 5763 5765 5766 5768 5769 5770 5770 5770 5769 5768 5766 5764 5762 5760 5757 5755 5752 5748 5745 5741 5737 5733 5729 5724 5720 5716 5713 5711 5708 5706 5699 5694 5688 5682 5677 5671
5738 5742 5746 5749 5752 5754 5756 5757 5758 5760 5761 5763 5763 5764 5763 5762 5761 5759 5757 5755 5753 5750 5746 5743 5739 5735 5730 5726 5722 5718 5714 5709 5704 5700 5697 5693 5691 5690 5687 5680 5671 5664 5657
5732 5736 5739 5742 5745 5748 5750 5751 5752 5754 5755 5756 5756 5757 5756 5755 5754 5752 5750 5747 5745 5741 5737 5733 5729 5724 5720 5716 5711 5707 5703 5699 5694 5688 5682 5676 5670 5666 5666 5666 5658 5650 5642
5725 5729 5732 5736 5739 5742 5744 5745 5746 5747 5748 5749 5750 5750 5749 5748 5746 5744 5742 5739 5736 5732 5728 5723 5719 5714 5710 5705 5701 5696 5692 5687 5682 5676 5670 5663 5655 5647 5640 5638 5636 5630 5622
5717 5722 5725 5729 5733 5735 5737 5739 5740 5741 5742 5742 5742 5742 5742 5741 5739 5737 5734 5731 5727 5722 5718 5713 5709 5705 5700 5696 5691 5686 5680 5675 5668 5662 5655 5648 5641 5633 5624 5618 5612 5606 5600
5710 5715 5719 5723 5726 5729 5731 5733 5734 5735 5735 5736 5736 5735 5734 5733 5731 5729 5725 5722 5717 5713 5709 5704 5700 5696 5691 5686 5681 5675 5669 5662 5655 5647 5639 5630 5621 5612 5603 5596 5591 5586 5580
5703 5707 5712 5716 5719 5722 5724 5726 5727 5728 5729 5729 5729 5728 5727 5725 5723 5720 5716 5712 5708 5704 5699 5695 5691 5686 5681 5676 5670 5663 5656 5648 5640 5631 5622 5613 5603 5594 5583 5574 5566 5561 5559
5696 5701 5705 5709 5713 5716 5718 5719 5720 5721 5722 5722 5721 5720 5718 5716 5713 5710 5707 5703 5699 5695 5690 5685 5681 5675 5670 5664 5657 5650 5642 5633 5624 5614 5605 5596 5586 5576 5565 5554 5542 5531 5527
5689 5694 5699 5703 5706 5709 5711 5713 5714 5714 5715 5714 5713 5712 5710 5707 5704 5701 5697 5693 5689 5685 5680 5675 5670 5664 5658 5651 5644 5636 5627 5617 5607 5598 5589 5579 5569 5558 5545 5533 5519 5504 5491
5684 5688 5693 5697 5700 5703 5705 5706 5707 5707 5707 5706 5705 5703 5701 5698 5695 5691 5688 5684 5679 5674 5670 5664 5658 5652 5645 5637 5629 5620 5611 5601 5591 5581 5571 5561 5549 5538 5524 5510 5495 5479 5459
5678 5683 5687 5691 5694 5697 5699 5700 5700 5700 5700 5699 5697 5695 5692 5689 5686 5682 5678 5674 5669 5664 5659 5653 5646 5639 5632 5623 5614 5605 5595 5585 5574 5564 5553 5541 5529 5515 5500 5484 5468 5451 5431
5674 5678 5682 5686 5689 5691 5693 5693 5693 5693 5692 5691 5689 5686 5683 5680 5677 5673 5668 5664 5658 5653 5647 5641 5634 5626 5617 5608 5599 5589 5579 5568 5557 5545 5533 5520 5506 5491 5475 5458 5439 5421 5402
5669 5674 5677 5681 5683 5685 5686 5687 5686 5685 5684 5683 5680 5678 5675 5671 5667 5663 5658 5653 5647 5641 5635 5628 5620 5612 5603 5593 5583 5573 5563 5552 5539 5525 5511 5496 5480 5463 5446 5428 5409 5389 5372
5666 5669 5673 5675 5677 5679 5679 5679 5679 5678 5676 5674 5672 5669 5666 5662 5658 5653 5648 5642 5636 5629 5622 5615 5606 5597 5587 5577 5567 5558 5546 5534 5520 5505 5488 5471 5453 5434 5413 5393 5375 5358 5343
5661 5665 5667 5670 5671 5672 5672 5672 5671 5669 5667 5666 5663 5660 5656 5652 5647 5642 5637 5631 5624 5617 5609 5600 5592 5582 5572 5562 5551 5540 5528 5514 5498 5483 5466 5447 5427 5407 5387 5367 5349 5332 5318
5657 5660 5662 5663 5665 5665 5665 5664 5663 5661 5659 5657 5654 5650 5646 5642 5637 5632 5626 5619 5612 5604 5595 5586 5577 5568 5557 5547 5535 5522 5509 5493 5476 5458 5440 5421 5400 5379 5361 5346 5331 5317 5301
5652 5654 5656 5657 5657 5657 5657 5656 5655 5653 5651 5648 5645 5641 5636 5632 5626 5621 5614 5607 5599 5591 5582 5572 5563 5553 5542 5530 5517 5504 5490 5473 5454 5433 5412 5392 5375 5356 5338 5325 5313 5300 5288
5647 5648 5649 5650 5650 5650 5649 5648 5647 5645 5642 5639 5635 5631 5626 5621 5615 5609 5602 5595 5586 5577 5568 5558 5548 5537 5525 5512 5498 5483 5469 5452 5433 5411 5388 5366 5350 5336 5320 5307 5297 5288 5278
5641 5642 5643 5643 5643 5642 5642 5640 5639 5636 5633 5629 5625 5621 5616 5610 5604 5597 5590 5582 5573 5564 5555 5544 5533 5521 5508 5493 5478 5460 5445 5430 5414 5393 5371 5350 5333 5319 5306 5296 5287 5279 5272
5634 5635 5636 5636 5636 5635 5634 5632 5630 5627 5624 5620 5616 5611 5605 5599 5592 5585 5577 5569 5561 5552 5543 5532 5519 5505 5489 5473 5456 5436 5417 5400 5385 5369 5354 5337 5322 5310 5298 5289 5281 5274 5267
5629 5629 5630 5630 5629 5628 5626 5624 5621 5618 5615 5610 5606 5600 5594 5588 5581 5573 5565 5557 5549 5540 5529 5518 5504 5487 5470 5453 5435 5416 5395 5375 5361 5348 5335 5324 5313 5302 5293 5285 5278 5271 5265
5623 5623 5623 5622 5621 5620 5618 5616 5613 5609 5605 5600 5595 5589 5583 5576 5569 5562 5554 5545 5536 5526 5515 5503 5489 5472 5453 5434 5416 5397 5378 5360 5346 5334 5322 5313 5304 5296 5289 5282 5275 5269 5263
5617 5617 5616 5615 5614 5612 5610 5607 5603 5600 5595 5590 5584 5578 5572 5565 5558 5550 5542 5532 5522 5511 5499 5485 5471 5455 5436 5417 5399 5382 5365 5350 5336 5325 5315 5306 5298 5291 5285 5279 5273 5267 5261
5611 5611 5610 5608 5606 5604 5601 5598 5594 5590 5585 5579 5574 5567 5561 5554 5547 5538 5528 5518 5506 5493 5480 5466 5451 5435 5419 5399 5380 5364 5350 5337 5326 5317 5309 5301 5294 5288 5282 5276 5270 5265 5259
5605 5604 5602 5600 5598 5595 5592 5589 5585 5580 5575 5569 5563 5557 5551 5544 5536 5526 5515 5502 5490 5475 5459 5444 5429 5412 5395 5380 5366 5352 5338 5327 5318 5310 5303 5297 5291 5286 5280 5275 5269 5264 5259